Weather History for Wausau, WI

Change the Weather History Date:

Saturday, April 27, 2013

  Actual Average Record
Temperature  
Mean Temperature 58 °F 49 °F  
Max Temperature 71 °F 61 °F 85 °F (1986)
Min Temperature 45 °F 38 °F 21 °F (1946)
Degree Days  
Heating Degree Days 7 16  
Month to date heating degree days 790 585  
Since 1 July heating degree days 7866 7806  
Cooling Degree Days 0 0  
Month to date cooling degree days 0 0  
Year to date cooling degree days 0 0  
Growing Degree Days 8 (Base 50)    
Moisture  
Dew Point 44 °F    
Average Humidity 63    
Maximum Humidity 86    
Minimum Humidity 39    
Precipitation  
Precipitation 0.00 in 0.11 in 2.10 in (1899)
Month to date precipitation 3.97 2.41  
Year to date precipitation 9.30 6.11  
Snow  
Snow 0.00 in 0.10 in 2.40 in (2002)
Month to date snowfall 10.1 3.9  
Since 1 July snowfall 78.8 59.2  
Snow Depth 0.00 in    
Sea Level Pressure  
Sea Level Pressure 30.09 in    
Wind  
Wind Speed 6 mph (South)    
Max Wind Speed 16 mph    
Max Gust Speed 21 mph    
Visibility 10 miles    
Events      
T = Trace of Precipitation, MM = Missing Value Source: NWS Daily Summary

Daily Weather History Graph

Daily Weather History Graph

Search for Another Location

Airport:

Trip Planner

Search our weather history database for the weather conditions in past years. The results will help you decide how hot, cold, wet, or windy it might be!

Date:

Astronomy

Apr. 27, 2013 Rise Set
Actual Time 5:53 AM CDT 7:59 PM CDT
Civil Twilight 5:21 AM CDT 8:31 PM CDT
Nautical Twilight 4:42 AM CDT 9:10 PM CDT
Astronomical Twilight 3:59 AM CDT 9:54 PM CDT
Moon 10:33 PM CDT (4/27) 7:08 AM CDT (4/27)
Length of Visible Light 15h 09m
Length of Day
14h 05m
Waning Gibbous, 95% of the Moon is Illuminated
Apr 27
Waning Gibbous
May 2
Last Quarter
May 9
New
May 17
First Quarter
May 24
Full

Hourly Weather History & Observations

Time (CDT) Temp. Dew Point Humidity Pressure Visibility Wind Dir Wind Speed Gust Speed Precip Events Conditions
12:54 AM 53.1 °F 45.0 °F 74% 30.15 in 10.0 mi SSW 8.1 mph - N/A   Clear
1:54 AM 51.1 °F 44.1 °F 77% 30.15 in 10.0 mi SSW 5.8 mph - N/A   Clear
2:54 AM 51.1 °F 44.1 °F 77% 30.14 in 10.0 mi South 3.5 mph - N/A   Clear
3:54 AM 48.9 °F 43.0 °F 80% 30.14 in 10.0 mi South 5.8 mph - N/A   Clear
4:54 AM 46.9 °F 42.1 °F 83% 30.14 in 10.0 mi Calm Calm - N/A   Clear
5:54 AM 46.0 °F 42.1 °F 86% 30.15 in 10.0 mi Calm Calm - N/A   Clear
6:54 AM 46.9 °F 43.0 °F 86% 30.16 in 10.0 mi Calm Calm - N/A   Clear
7:54 AM 50.0 °F 45.0 °F 83% 30.17 in 10.0 mi Variable 4.6 mph - N/A   Clear
8:54 AM 54.0 °F 46.0 °F 75% 30.17 in 10.0 mi SSW 8.1 mph - N/A   Clear
9:54 AM 59.0 °F 46.9 °F 64% 30.15 in 10.0 mi South 5.8 mph - N/A   Clear
10:54 AM 61.0 °F 46.9 °F 60% 30.13 in 10.0 mi South 6.9 mph - N/A   Clear
11:54 AM 64.9 °F 46.9 °F 52% 30.12 in 10.0 mi South 6.9 mph - N/A   Clear
12:54 PM 66.9 °F 46.9 °F 49% 30.11 in 10.0 mi South 10.4 mph - N/A   Clear
1:54 PM 69.1 °F 46.0 °F 44% 30.09 in 10.0 mi SSW 8.1 mph - N/A   Scattered Clouds
2:54 PM 68.0 °F 45.0 °F 43% 30.07 in 10.0 mi South 8.1 mph - N/A   Scattered Clouds
3:54 PM 68.0 °F 45.0 °F 43% 30.04 in 10.0 mi SSW 10.4 mph 16.1 mph N/A   Scattered Clouds
4:54 PM 68.0 °F 42.1 °F 39% 30.02 in 10.0 mi SSW 8.1 mph - N/A   Overcast
5:54 PM 66.9 °F 43.0 °F 42% 30.01 in 10.0 mi South 13.8 mph 20.7 mph N/A   Mostly Cloudy
6:54 PM 64.9 °F 44.1 °F 47% 30.00 in 10.0 mi South 10.4 mph - N/A   Overcast
7:54 PM 61.0 °F 44.1 °F 54% 30.01 in 10.0 mi SSE 6.9 mph - N/A   Partly Cloudy
8:54 PM 57.9 °F 44.1 °F 60% 30.01 in 10.0 mi South 6.9 mph - N/A   Clear
9:54 PM 55.9 °F 44.1 °F 64% 30.01 in 10.0 mi South 5.8 mph - N/A   Clear
10:54 PM 54.0 °F 43.0 °F 66% 30.01 in 10.0 mi South 6.9 mph - N/A   Clear
11:54 PM 53.1 °F 43.0 °F 69% 30.00 in 10.0 mi South 5.8 mph - N/A   Clear